Wetterdaten: Donnerstag, 16.04.2015
Datum Zeit Temp. A. Feuchte A. Luftdruck Regen Wind Richtung Richtung Sonnenschein ET UV Solar Taupunkt Windchill Windben Empfang
16.04.2015 00:00 11,2 C 54 % 1014,7 hPa 0,0 l/m 0,0 km/h (0 Bft) W-SW 254 0 min 0,000 mm 0,0 UV-I 0 W/m 2,2 C 11,2 C 0,0 km/h (0 Bft) 0,00 %
16.04.2015 00:15 11,5 C 52 % 1014,7 hPa 0,0 l/m 0,0 km/h (0 Bft) S 174 0 min 0,000 mm 0,0 UV-I 0 W/m 2,0 C 11,5 C 0,0 km/h (0 Bft) 0,00 %
16.04.2015 00:30 11,3 C 54 % 1014,8 hPa 0,0 l/m 0,0 km/h (0 Bft) W-SW 254 0 min 0,000 mm 0,0 UV-I 0 W/m 2,3 C 11,3 C 0,0 km/h (0 Bft) 0,00 %
16.04.2015 00:45 11,0 C 55 % 1014,8 hPa 0,0 l/m 0,0 km/h (0 Bft) S 175 0 min 0,000 mm 0,0 UV-I 0 W/m 2,3 C 11,0 C 0,0 km/h (0 Bft) 0,00 %
16.04.2015 01:00 10,7 C 56 % 1014,7 hPa 0,0 l/m 0,0 km/h (0 Bft) SO 142 0 min 0,000 mm 0,0 UV-I 0 W/m 2,3 C 10,7 C 0,0 km/h (0 Bft) 0,00 %
16.04.2015 01:15 10,4 C 58 % 1014,7 hPa 0,0 l/m 0,0 km/h (0 Bft) S-SW 207 0 min 0,000 mm 0,0 UV-I 0 W/m 2,5 C 10,4 C 0,0 km/h (0 Bft) 0,00 %
16.04.2015 01:30 10,3 C 59 % 1014,5 hPa 0,0 l/m 0,0 km/h (0 Bft) W-SW 252 0 min 0,000 mm 0,0 UV-I 0 W/m 2,6 C 10,3 C 0,0 km/h (0 Bft) 0,00 %
16.04.2015 01:45 10,2 C 58 % 1014,6 hPa 0,0 l/m 0,0 km/h (0 Bft) S 181 0 min 0,000 mm 0,0 UV-I 0 W/m 2,3 C 10,2 C 0,0 km/h (0 Bft) 0,00 %
16.04.2015 02:00 10,0 C 60 % 1014,5 hPa 0,0 l/m 0,0 km/h (0 Bft) SW 220 0 min 0,000 mm 0,0 UV-I 0 W/m 2,6 C 10,0 C 0,0 km/h (0 Bft) 0,00 %
16.04.2015 02:15 9,9 C 60 % 1014,5 hPa 0,0 l/m 0,0 km/h (0 Bft) S 184 0 min 0,000 mm 0,0 UV-I 0 W/m 2,5 C 9,9 C 0,0 km/h (0 Bft) 0,00 %
16.04.2015 02:30 9,7 C 60 % 1014,1 hPa 0,0 l/m 0,0 km/h (0 Bft) W-SW 239 0 min 0,000 mm 0,0 UV-I 0 W/m 2,3 C 9,7 C 0,0 km/h (0 Bft) 0,00 %
16.04.2015 02:45 9,6 C 60 % 1013,9 hPa 0,0 l/m 0,0 km/h (0 Bft) S 190 0 min 0,000 mm 0,0 UV-I 0 W/m 2,2 C 9,6 C 0,0 km/h (0 Bft) 0,00 %
16.04.2015 03:00 9,3 C 59 % 1013,7 hPa 0,0 l/m 0,0 km/h (0 Bft) S 183 0 min 0,000 mm 0,0 UV-I 0 W/m 1,7 C 9,3 C 0,0 km/h (0 Bft) 0,00 %
16.04.2015 03:15 9,2 C 61 % 1013,9 hPa 0,0 l/m 0,0 km/h (0 Bft) S 173 0 min 0,000 mm 0,0 UV-I 0 W/m 2,1 C 9,2 C 0,0 km/h (0 Bft) 0,00 %
16.04.2015 03:30 8,8 C 61 % 1013,9 hPa 0,0 l/m 0,0 km/h (0 Bft) S 183 0 min 0,000 mm 0,0 UV-I 0 W/m 1,7 C 8,8 C 0,0 km/h (0 Bft) 0,00 %
16.04.2015 03:45 8,6 C 63 % 1013,8 hPa 0,0 l/m 0,0 km/h (0 Bft) S 177 0 min 0,000 mm 0,0 UV-I 0 W/m 2,0 C 8,6 C 0,0 km/h (0 Bft) 0,00 %
16.04.2015 04:00 8,4 C 65 % 1014,1 hPa 0,0 l/m 0,0 km/h (0 Bft) S 179 0 min 0,000 mm 0,0 UV-I 0 W/m 2,2 C 8,4 C 0,0 km/h (0 Bft) 0,00 %
16.04.2015 04:15 8,1 C 66 % 1013,8 hPa 0,0 l/m 0,0 km/h (0 Bft) S 189 0 min 0,000 mm 0,0 UV-I 0 W/m 2,1 C 8,1 C 0,0 km/h (0 Bft) 0,00 %
16.04.2015 04:30 7,1 C 72 % 1014,0 hPa 0,0 l/m 0,0 km/h (0 Bft) S 178 0 min 0,000 mm 0,0 UV-I 0 W/m 2,4 C 7,1 C 0,0 km/h (0 Bft) 0,00 %
16.04.2015 04:45 6,8 C 71 % 1014,1 hPa 0,0 l/m 0,0 km/h (0 Bft) S 179 0 min 0,000 mm 0,0 UV-I 0 W/m 1,9 C 6,8 C 0,0 km/h (0 Bft) 0,00 %
16.04.2015 05:00 6,7 C 71 % 1013,9 hPa 0,0 l/m 0,0 km/h (0 Bft) S 186 0 min 0,000 mm 0,0 UV-I 0 W/m 1,8 C 6,7 C 0,0 km/h (0 Bft) 0,00 %
16.04.2015 05:15 6,3 C 76 % 1014,1 hPa 0,0 l/m 0,0 km/h (0 Bft) S 188 0 min 0,000 mm 0,0 UV-I 0 W/m 2,4 C 6,3 C 0,0 km/h (0 Bft) 0,00 %
16.04.2015 05:30 5,7 C 79 % 1014,3 hPa 0,0 l/m 0,0 km/h (0 Bft) S 191 0 min 0,000 mm 0,0 UV-I 0 W/m 2,3 C 5,7 C 0,0 km/h (0 Bft) 0,00 %
16.04.2015 05:45 5,4 C 80 % 1014,4 hPa 0,0 l/m 0,0 km/h (0 Bft) S-SW 193 0 min 0,000 mm 0,0 UV-I 0 W/m 2,2 C 5,4 C 0,0 km/h (0 Bft) 0,00 %
16.04.2015 06:00 5,2 C 80 % 1014,3 hPa 0,0 l/m 0,0 km/h (0 Bft) S 177 0 min 0,000 mm 0,0 UV-I 0 W/m 2,0 C 5,2 C 0,0 km/h (0 Bft) 0,00 %
16.04.2015 06:15 5,3 C 77 % 1014,4 hPa 0,0 l/m 0,0 km/h (0 Bft) S 186 0 min 0,000 mm 0,0 UV-I 0 W/m 1,6 C 5,3 C 0,0 km/h (0 Bft) 0,00 %
16.04.2015 06:30 6,4 C 73 % 1014,1 hPa 0,0 l/m 0,0 km/h (0 Bft) S-SW 195 0 min 0,000 mm 0,0 UV-I 6 W/m 1,9 C 6,4 C 0,0 km/h (0 Bft) 0,00 %
16.04.2015 06:45 7,3 C 72 % 1014,2 hPa 0,0 l/m 0,0 km/h (0 Bft) S-SW 193 15 min 0,000 mm 0,0 UV-I 72 W/m 2,6 C 7,3 C 0,0 km/h (0 Bft) 0,00 %
16.04.2015 07:00 9,2 C 63 % 1014,1 hPa 0,0 l/m 0,0 km/h (0 Bft) S 185 15 min 0,000 mm 1,0 UV-I 133 W/m 2,5 C 9,2 C 0,0 km/h (0 Bft) 0,00 %
16.04.2015 07:15 11,8 C 56 % 1013,4 hPa 0,0 l/m 0,0 km/h (0 Bft) S 189 15 min 0,000 mm 1,0 UV-I 161 W/m 3,3 C 11,8 C 0,0 km/h (0 Bft) 0,00 %
16.04.2015 07:30 12,6 C 54 % 1013,5 hPa 0,0 l/m 0,0 km/h (0 Bft) S-SW 193 15 min 0,000 mm 1,0 UV-I 168 W/m 3,5 C 12,6 C 0,0 km/h (0 Bft) 0,00 %
16.04.2015 07:45 13,5 C 51 % 1013,3 hPa 0,0 l/m 0,0 km/h (0 Bft) S 185 15 min 0,000 mm 1,0 UV-I 169 W/m 3,6 C 13,5 C 0,0 km/h (0 Bft) 0,00 %
16.04.2015 08:00 14,5 C 47 % 1013,3 hPa 0,0 l/m 0,0 km/h (0 Bft) S 187 15 min 0,000 mm 1,0 UV-I 167 W/m 3,3 C 14,5 C 0,0 km/h (0 Bft) 0,00 %
16.04.2015 08:15 14,9 C 50 % 1013,1 hPa 0,0 l/m 0,0 km/h (0 Bft) S 191 0 min 0,000 mm 1,0 UV-I 181 W/m 4,6 C 14,9 C 0,0 km/h (0 Bft) 0,00 %
16.04.2015 08:30 15,3 C 48 % 1013,0 hPa 0,0 l/m 0,0 km/h (0 Bft) S-SW 208 0 min 0,000 mm 2,0 UV-I 199 W/m 4,4 C 15,3 C 0,0 km/h (0 Bft) 0,00 %
16.04.2015 08:45 16,5 C 43 % 1013,1 hPa 0,0 l/m 0,0 km/h (0 Bft) S-SW 205 0 min 0,000 mm 2,0 UV-I 220 W/m 3,9 C 16,5 C 0,0 km/h (0 Bft) 0,00 %
16.04.2015 09:00 17,6 C 41 % 1013,1 hPa 0,0 l/m 0,0 km/h (0 Bft) S 184 0 min 0,000 mm 2,0 UV-I 245 W/m 4,2 C 17,6 C 0,0 km/h (0 Bft) 0,00 %
16.04.2015 09:15 18,1 C 43 % 1013,0 hPa 0,0 l/m 0,0 km/h (0 Bft) N 352 0 min 0,000 mm 2,0 UV-I 262 W/m 5,3 C 18,1 C 0,0 km/h (0 Bft) 0,00 %
16.04.2015 09:30 18,2 C 43 % 1013,0 hPa 0,0 l/m 0,0 km/h (0 Bft) SW 219 15 min 0,000 mm 2,0 UV-I 290 W/m 5,4 C 18,2 C 0,0 km/h (0 Bft) 0,00 %
16.04.2015 09:45 17,7 C 44 % 1013,1 hPa 0,0 l/m 0,0 km/h (0 Bft) SW 222 15 min 0,000 mm 2,0 UV-I 330 W/m 5,3 C 17,7 C 0,0 km/h (0 Bft) 0,00 %
16.04.2015 10:00 18,6 C 35 % 1013,0 hPa 0,0 l/m 0,0 km/h (0 Bft) S 190 15 min 0,000 mm 3,0 UV-I 336 W/m 2,8 C 18,6 C 0,0 km/h (0 Bft) 0,00 %
16.04.2015 10:15 18,8 C 35 % 1013,2 hPa 0,0 l/m 1,8 km/h (1 Bft) SW 231 15 min 0,000 mm 3,0 UV-I 387 W/m 3,0 C 18,8 C 4,0 km/h (1 Bft) 0,00 %
16.04.2015 10:30 19,4 C 34 % 1013,2 hPa 0,0 l/m 2,9 km/h (1 Bft) SW 231 15 min 0,000 mm 4,0 UV-I 417 W/m 3,1 C 19,4 C 4,0 km/h (1 Bft) 0,00 %
16.04.2015 10:45 20,0 C 35 % 1013,1 hPa 0,0 l/m 2,2 km/h (1 Bft) W-SW 258 15 min 0,000 mm 4,0 UV-I 474 W/m 4,1 C 20,0 C 4,0 km/h (1 Bft) 0,00 %
16.04.2015 11:00 21,2 C 32 % 1013,0 hPa 0,0 l/m 0,4 km/h (0 Bft) SW 216 15 min 0,000 mm 4,0 UV-I 512 W/m 3,8 C 21,2 C 4,0 km/h (1 Bft) 0,00 %
16.04.2015 11:15 21,5 C 33 % 1012,9 hPa 0,0 l/m 0,0 km/h (0 Bft) S-SW 210 15 min 0,000 mm 3,0 UV-I 525 W/m 4,5 C 21,5 C 0,0 km/h (0 Bft) 0,00 %
16.04.2015 11:30 21,6 C 30 % 1012,9 hPa 0,0 l/m 3,2 km/h (1 Bft) SW 227 15 min 0,000 mm 4,0 UV-I 518 W/m 3,3 C 21,6 C 4,0 km/h (1 Bft) 0,00 %
16.04.2015 11:45 22,0 C 29 % 1012,7 hPa 0,0 l/m 6,5 km/h (2 Bft) W-SW 242 15 min 0,000 mm 5,0 UV-I 562 W/m 3,1 C 22,0 C 7,9 km/h (2 Bft) 0,00 %
16.04.2015 12:00 22,6 C 26 % 1012,3 hPa 0,0 l/m 1,8 km/h (1 Bft) S 176 15 min 0,000 mm 5,0 UV-I 677 W/m 2,1 C 22,6 C 4,0 km/h (1 Bft) 0,00 %
16.04.2015 12:15 22,6 C 28 % 1012,2 hPa 0,0 l/m 0,0 km/h (0 Bft) S 184 15 min 0,000 mm 4,0 UV-I 501 W/m 3,2 C 22,6 C 0,0 km/h (0 Bft) 0,00 %
16.04.2015 12:30 22,9 C 28 % 1012,2 hPa 0,0 l/m 0,0 km/h (0 Bft) S-SW 198 15 min 0,000 mm 5,0 UV-I 592 W/m 3,4 C 22,9 C 0,0 km/h (0 Bft) 0,00 %
16.04.2015 12:45 23,7 C 25 % 1011,8 hPa 0,0 l/m 4,0 km/h (1 Bft) W-SW 256 15 min 0,000 mm 5,0 UV-I 698 W/m 2,5 C 23,7 C 4,0 km/h (1 Bft) 0,00 %
16.04.2015 13:00 23,8 C 28 % 1011,6 hPa 0,0 l/m 0,0 km/h (0 Bft) SW 219 15 min 0,000 mm 5,0 UV-I 802 W/m 4,2 C 23,8 C 0,0 km/h (0 Bft) 0,00 %
16.04.2015 13:15 23,7 C 24 % 1011,4 hPa 0,0 l/m 8,3 km/h (2 Bft) W-SW 256 15 min 0,000 mm 4,0 UV-I 654 W/m 1,9 C 23,2 C 11,9 km/h (2 Bft) 0,00 %
16.04.2015 13:30 23,9 C 23 % 1011,3 hPa 0,0 l/m 0,0 km/h (0 Bft) S-SO 164 15 min 0,000 mm 4,0 UV-I 651 W/m 1,5 C 23,9 C 0,0 km/h (0 Bft) 0,00 %
16.04.2015 13:45 24,5 C 25 % 1011,0 hPa 0,0 l/m 3,2 km/h (1 Bft) W-SW 255 15 min 0,000 mm 4,0 UV-I 601 W/m 3,2 C 24,5 C 4,0 km/h (1 Bft) 0,00 %
16.04.2015 14:00 23,6 C 24 % 1010,8 hPa 0,0 l/m 14,8 km/h (3 Bft) W-SW 255 15 min 0,000 mm 3,0 UV-I 510 W/m 1,8 C 21,6 C 19,8 km/h (3 Bft) 0,00 %
16.04.2015 14:15 23,9 C 25 % 1010,7 hPa 0,0 l/m 9,0 km/h (2 Bft) W-SW 256 15 min 0,000 mm 4,0 UV-I 515 W/m 2,7 C 23,2 C 11,9 km/h (2 Bft) 0,00 %
16.04.2015 14:30 24,3 C 25 % 1010,3 hPa 0,0 l/m 8,3 km/h (2 Bft) W 278 15 min 0,000 mm 3,0 UV-I 684 W/m 3,0 C 23,8 C 11,9 km/h (2 Bft) 0,00 %
16.04.2015 14:45 24,0 C 26 % 1010,2 hPa 0,0 l/m 0,0 km/h (0 Bft) SW 227 15 min 0,000 mm 3,0 UV-I 590 W/m 3,3 C 24,0 C 0,0 km/h (0 Bft) 0,00 %
16.04.2015 15:00 23,4 C 26 % 1009,9 hPa 0,0 l/m 5,4 km/h (1 Bft) W-NW 289 15 min 0,000 mm 2,0 UV-I 396 W/m 2,8 C 23,4 C 7,9 km/h (2 Bft) 0,00 %
16.04.2015 15:15 22,7 C 28 % 1010,0 hPa 0,0 l/m 0,0 km/h (0 Bft) SW 215 0 min 0,000 mm 2,0 UV-I 320 W/m 3,3 C 22,7 C 0,0 km/h (0 Bft) 0,00 %
16.04.2015 15:30 23,0 C 26 % 1010,0 hPa 0,0 l/m 9,4 km/h (2 Bft) W-SW 255 0 min 0,000 mm 2,0 UV-I 338 W/m 2,5 C 22,1 C 11,9 km/h (2 Bft) 0,00 %
16.04.2015 15:45 22,2 C 29 % 1010,2 hPa 0,0 l/m 0,4 km/h (0 Bft) W-SW 254 0 min 0,000 mm 2,0 UV-I 280 W/m 3,3 C 22,2 C 4,0 km/h (1 Bft) 0,00 %
16.04.2015 16:00 22,3 C 30 % 1010,0 hPa 0,0 l/m 10,4 km/h (2 Bft) W-SW 256 0 min 0,000 mm 2,0 UV-I 311 W/m 3,9 C 21,1 C 11,9 km/h (2 Bft) 0,00 %
16.04.2015 16:15 22,4 C 32 % 1009,9 hPa 0,0 l/m 6,8 km/h (2 Bft) W-SW 252 0 min 0,000 mm 2,0 UV-I 300 W/m 4,9 C 22,3 C 11,9 km/h (2 Bft) 0,00 %
16.04.2015 16:30 21,9 C 31 % 1009,8 hPa 0,0 l/m 0,0 km/h (0 Bft) SW 233 0 min 0,000 mm 1,0 UV-I 226 W/m 4,0 C 21,9 C 0,0 km/h (0 Bft) 0,00 %
16.04.2015 16:45 21,8 C 31 % 1010,0 hPa 0,0 l/m 5,8 km/h (2 Bft) W-SW 238 0 min 0,000 mm 1,0 UV-I 202 W/m 3,9 C 21,8 C 7,9 km/h (2 Bft) 0,00 %
16.04.2015 17:00 21,5 C 33 % 1009,7 hPa 0,0 l/m 0,0 km/h (0 Bft) SW 215 0 min 0,000 mm 1,0 UV-I 155 W/m 4,5 C 21,5 C 0,0 km/h (0 Bft) 0,00 %
16.04.2015 17:15 21,2 C 38 % 1009,8 hPa 0,0 l/m 0,0 km/h (0 Bft) S-SW 207 0 min 0,000 mm 1,0 UV-I 137 W/m 6,3 C 21,2 C 0,0 km/h (0 Bft) 0,00 %
16.04.2015 17:30 21,3 C 35 % 1009,7 hPa 0,0 l/m 0,0 km/h (0 Bft) SW 215 0 min 0,000 mm 1,0 UV-I 167 W/m 5,2 C 21,3 C 0,0 km/h (0 Bft) 0,00 %
16.04.2015 17:45 21,2 C 36 % 1009,5 hPa 0,0 l/m 0,0 km/h (0 Bft) S 182 0 min 0,000 mm 1,0 UV-I 191 W/m 5,5 C 21,2 C 0,0 km/h (0 Bft) 0,00 %
16.04.2015 18:00 21,1 C 37 % 1009,4 hPa 0,0 l/m 0,0 km/h (0 Bft) S-SW 203 0 min 0,000 mm 1,0 UV-I 167 W/m 5,8 C 21,1 C 0,0 km/h (0 Bft) 0,00 %
16.04.2015 18:15 21,0 C 37 % 1009,4 hPa 0,0 l/m 0,0 km/h (0 Bft) S-SW 197 15 min 0,000 mm 1,0 UV-I 158 W/m 5,8 C 21,0 C 0,0 km/h (0 Bft) 0,00 %
16.04.2015 18:30 20,5 C 39 % 1009,4 hPa 0,0 l/m 0,0 km/h (0 Bft) SW 219 15 min 0,000 mm 1,0 UV-I 132 W/m 6,1 C 20,5 C 0,0 km/h (0 Bft) 0,00 %
16.04.2015 18:45 20,2 C 42 % 1009,4 hPa 0,0 l/m 0,0 km/h (0 Bft) S 189 15 min 0,000 mm 1,0 UV-I 105 W/m 6,9 C 20,2 C 0,0 km/h (0 Bft) 0,00 %
16.04.2015 19:00 19,7 C 43 % 1009,3 hPa 0,0 l/m 0,0 km/h (0 Bft) S 178 0 min 0,000 mm 0,0 UV-I 66 W/m 6,8 C 19,7 C 0,0 km/h (0 Bft) 0,00 %
16.04.2015 19:15 18,9 C 47 % 1009,4 hPa 0,0 l/m 0,0 km/h (0 Bft) S 180 0 min 0,000 mm 0,0 UV-I 34 W/m 7,3 C 18,9 C 0,0 km/h (0 Bft) 0,00 %
16.04.2015 19:30 18,1 C 49 % 1009,7 hPa 0,0 l/m 0,0 km/h (0 Bft) S 186 0 min 0,000 mm 0,0 UV-I 17 W/m 7,2 C 18,1 C 0,0 km/h (0 Bft) 0,00 %
16.04.2015 19:45 17,3 C 50 % 1009,8 hPa 0,0 l/m 0,0 km/h (0 Bft) S 185 0 min 0,000 mm 0,0 UV-I 0 W/m 6,8 C 17,3 C 0,0 km/h (0 Bft) 0,00 %
16.04.2015 20:00 17,2 C 48 % 1009,9 hPa 0,0 l/m 0,0 km/h (0 Bft) S 186 0 min 0,000 mm 0,0 UV-I 0 W/m 6,1 C 17,2 C 0,0 km/h (0 Bft) 0,00 %
16.04.2015 20:15 16,9 C 51 % 1009,8 hPa 0,0 l/m 0,0 km/h (0 Bft) S 183 0 min 0,000 mm 0,0 UV-I 0 W/m 6,7 C 16,9 C 0,0 km/h (0 Bft) 0,00 %
16.04.2015 20:30 16,3 C 49 % 1010,0 hPa 0,0 l/m 0,0 km/h (0 Bft) S 176 0 min 0,000 mm 0,0 UV-I 0 W/m 5,6 C 16,3 C 0,0 km/h (0 Bft) 0,00 %
16.04.2015 20:45 16,7 C 50 % 1010,1 hPa 0,0 l/m 0,0 km/h (0 Bft) S 177 0 min 0,000 mm 0,0 UV-I 0 W/m 6,2 C 16,7 C 0,0 km/h (0 Bft) 0,00 %
16.04.2015 21:00 16,3 C 51 % 1010,1 hPa 0,0 l/m 0,0 km/h (0 Bft) S 175 0 min 0,000 mm 0,0 UV-I 0 W/m 6,1 C 16,3 C 0,0 km/h (0 Bft) 0,00 %
16.04.2015 21:15 16,0 C 51 % 1010,2 hPa 0,0 l/m 0,0 km/h (0 Bft) S 186 0 min 0,000 mm 0,0 UV-I 0 W/m 5,9 C 16,0 C 0,0 km/h (0 Bft) 0,00 %
16.04.2015 21:30 15,7 C 52 % 1010,3 hPa 0,0 l/m 0,0 km/h (0 Bft) S 181 0 min 0,000 mm 0,0 UV-I 0 W/m 5,9 C 15,7 C 0,0 km/h (0 Bft) 0,00 %
16.04.2015 21:45 15,5 C 56 % 1010,2 hPa 0,0 l/m 0,0 km/h (0 Bft) S 191 0 min 0,000 mm 0,0 UV-I 0 W/m 6,8 C 15,5 C 0,0 km/h (0 Bft) 0,00 %
16.04.2015 22:00 14,9 C 60 % 1010,1 hPa 0,0 l/m 0,0 km/h (0 Bft) S 191 0 min 0,000 mm 0,0 UV-I 0 W/m 7,2 C 14,9 C 0,0 km/h (0 Bft) 0,00 %
16.04.2015 22:15 14,3 C 61 % 1010,2 hPa 0,0 l/m 0,0 km/h (0 Bft) S 191 0 min 0,000 mm 0,0 UV-I 0 W/m 6,9 C 14,3 C 0,0 km/h (0 Bft) 0,00 %
16.04.2015 22:30 14,0 C 62 % 1010,3 hPa 0,0 l/m 0,0 km/h (0 Bft) S 181 0 min 0,000 mm 0,0 UV-I 0 W/m 6,8 C 14,0 C 0,0 km/h (0 Bft) 0,00 %
16.04.2015 22:45 13,7 C 64 % 1010,3 hPa 0,0 l/m 0,0 km/h (0 Bft) S-SW 209 0 min 0,000 mm 0,0 UV-I 0 W/m 7,0 C 13,7 C 0,0 km/h (0 Bft) 0,00 %
16.04.2015 23:00 13,7 C 63 % 1010,4 hPa 0,0 l/m 0,0 km/h (0 Bft) S-SW 198 0 min 0,000 mm 0,0 UV-I 0 W/m 6,8 C 13,7 C 0,0 km/h (0 Bft) 0,00 %
16.04.2015 23:15 13,8 C 62 % 1010,2 hPa 0,0 l/m 0,0 km/h (0 Bft) S 187 0 min 0,000 mm 0,0 UV-I 0 W/m 6,6 C 13,8 C 0,0 km/h (0 Bft) 0,00 %
16.04.2015 23:30 13,6 C 61 % 1010,5 hPa 0,0 l/m 0,0 km/h (0 Bft) S 186 0 min 0,000 mm 0,0 UV-I 0 W/m 6,2 C 13,6 C 0,0 km/h (0 Bft) 0,00 %
16.04.2015 23:45 13,5 C 59 % 1010,5 hPa 0,0 l/m 0,0 km/h (0 Bft) S 184 0 min 0,000 mm 0,0 UV-I 0 W/m 5,6 C 13,5 C 0,0 km/h (0 Bft) 0,00 %
_ Min-Zeit 06:00 13:30 19:00 - 00:00 - - - - - - 13:30 06:00 00:00 00:00
Minimum _ 5,2 C 23 % 1009,3 hPa - 0,0 km/h (0 Bft) - - - - - - 1,5 C 5,2 C 0,0 km/h (0 Bft) 0,00 %
_ Max-Zeit 13:45 05:45 00:30 00:00 14:00 - - 06:45 00:00 11:45 13:00 19:15 13:45 14:00 00:00
Maximum _ 24,5 C 80 % 1014,8 hPa 0,0 l/m 14,8 km/h
W-SW (3 Bft)
- - 15 min 0,000 mm 5,0 UV-I 802 W/m 7,3 C 24,5 C 19,8 km/h
W-SW (3 Bft)
0,00 %
Durchschnitt _ 16,0 C 48 % 1012,0 hPa #0,0 l/m 1,1 km/h (1 Bft) W-SW - #8:00 h #0,000 mm 2,5 UV-I 330 W/m 3,9 C 15,9 C 1,6 km/h (1 Bft) 0,00 %